Weather History for West Palm Beach, FL

Change the Weather History Date:

Wednesday, October 12, 2011

  Actual Average Record
Temperature  
Mean Temperature 82 °F 79 °F  
Max Temperature 90 °F 86 °F 93 °F (1946)
Min Temperature 73 °F 73 °F 59 °F (1903)
Degree Days  
Heating Degree Days 0 0  
Month to date heating degree days 0 0  
Since 1 July heating degree days 0 0  
Cooling Degree Days 17 14  
Month to date cooling degree days 192 179  
Year to date cooling degree days 4084 3387  
Growing Degree Days 31 (Base 50)    
Moisture  
Dew Point 71 °F    
Average Humidity 72    
Maximum Humidity 94    
Minimum Humidity 50    
Precipitation  
Precipitation 0.11 in 0.17 in 4.70 in (1947)
Month to date precipitation 0.15 2.31  
Year to date precipitation 35.92 51.38  
Snow  
Snow 0.00 in - - ()
Month to date snowfall 0.0  
Since 1 July snowfall 0.0  
Since 1 September snowfall 0.0  
Snow Depth 0.00 in    
Sea Level Pressure  
Sea Level Pressure 29.84 in    
Wind  
Wind Speed 5 mph (SSW)    
Max Wind Speed 20 mph    
Max Gust Speed 22 mph    
Visibility 10 miles    
Events Rain    
T = Trace of Precipitation, MM = Missing Value Source: NWS Daily Summary

Daily Weather History Graph

Daily Weather History Graph

Search for Another Location

Airport:

Trip Planner

Search our weather history database for the weather conditions in past years. The results will help you decide how hot, cold, wet, or windy it might be!

Date:

Astronomy

Oct. 12, 2011 Rise Set
Actual Time 7:18 AM EDT 6:55 PM EDT
Civil Twilight 6:54 AM EDT 7:18 PM EDT
Nautical Twilight 6:27 AM EDT 7:45 PM EDT
Astronomical Twilight 6:00 AM EDT 8:12 PM EDT
Moon 7:07 PM EDT (10/12) 7:42 AM EDT (10/12)
Length of Visible Light 12h 23m
Length of Day
11h 37m
Full, 100% of the Moon is Illuminated
Oct 12
Full
Oct 19
Last Quarter
Oct 26
New
Nov 2
First Quarter
Nov 10
Full

Hourly Weather History & Observations

Time (EDT) Temp. Heat Index Dew Point Humidity Pressure Visibility Wind Dir Wind Speed Gust Speed Precip Events Conditions
12:53 AM 78.1 °F - 71.1 °F 79% 29.86 in 10.0 mi SW 4.6 mph - N/A   Mostly Cloudy
1:53 AM 78.1 °F - 71.1 °F 79% 29.84 in 10.0 mi Calm Calm - N/A   Scattered Clouds
2:53 AM 77.0 °F - 71.1 °F 82% 29.85 in 10.0 mi Calm Calm - N/A   Scattered Clouds
3:53 AM 73.9 °F - 70.0 °F 87% 29.83 in 10.0 mi Calm Calm - N/A   Scattered Clouds
4:53 AM 75.0 °F - 71.1 °F 87% 29.84 in 10.0 mi SSW 3.5 mph - N/A   Scattered Clouds
5:53 AM 73.0 °F - 70.0 °F 90% 29.85 in 10.0 mi Calm Calm - N/A   Scattered Clouds
6:53 AM 73.9 °F - 71.1 °F 91% 29.86 in 10.0 mi SW 3.5 mph - N/A   Mostly Cloudy
7:53 AM 75.0 °F - 72.0 °F 90% 29.87 in 10.0 mi Calm Calm - N/A   Mostly Cloudy
8:53 AM 79.0 °F - 73.9 °F 84% 29.88 in 10.0 mi Calm Calm - N/A   Mostly Cloudy
9:53 AM 82.0 °F 86.7 °F 72.0 °F 71% 29.89 in 10.0 mi SW 4.6 mph - N/A   Mostly Cloudy
10:53 AM 84.0 °F 89.6 °F 72.0 °F 67% 29.87 in 10.0 mi WSW 4.6 mph - N/A   Mostly Cloudy
11:53 AM 86.0 °F 90.1 °F 69.1 °F 57% 29.86 in 10.0 mi WSW 8.1 mph - N/A   Mostly Cloudy
12:53 PM 88.0 °F 92.1 °F 69.1 °F 53% 29.84 in 10.0 mi WSW 9.2 mph - N/A   Mostly Cloudy
1:53 PM 89.1 °F 92.9 °F 68.0 °F 50% 29.82 in 10.0 mi West 8.1 mph - N/A   Mostly Cloudy
2:53 PM 88.0 °F 94.7 °F 72.0 °F 59% 29.80 in 10.0 mi East 10.4 mph - N/A   Mostly Cloudy
3:53 PM 87.1 °F 94.5 °F 73.0 °F 63% 29.78 in 10.0 mi ESE 12.7 mph - N/A   Scattered Clouds
4:53 PM 86.0 °F 93.0 °F 73.0 °F 65% 29.78 in 10.0 mi SE 11.5 mph - N/A   Scattered Clouds
5:53 PM 84.9 °F 90.7 °F 72.0 °F 65% 29.78 in 10.0 mi SE 11.5 mph - N/A   Scattered Clouds
6:53 PM 82.9 °F 88.8 °F 73.0 °F 72% 29.79 in 10.0 mi SE 9.2 mph - N/A   Scattered Clouds
7:53 PM 82.0 °F 86.7 °F 72.0 °F 71% 29.81 in 10.0 mi SE 8.1 mph - N/A   Scattered Clouds
8:53 PM 82.0 °F 86.7 °F 72.0 °F 71% 29.82 in 10.0 mi SSE 6.9 mph - N/A   Scattered Clouds
9:53 PM 78.1 °F - 71.1 °F 79% 29.86 in 5.0 mi West 15.0 mph 21.9 mph 0.00 in Rain Light Rain
10:53 PM 75.9 °F - 72.0 °F 87% 29.85 in 10.0 mi SSW 3.5 mph - 0.11 in Rain Light Rain
11:53 PM 75.9 °F - 73.0 °F 91% 29.84 in 10.0 mi Calm Calm - 0.00 in   Mostly Cloudy